PBO Station Position Time Series. Reference Frame : NAM14
Format Version,1.1.1
4-character ID,CPXX
Station name,CPXX_PNGA_WA2001
Begin Date, 2001-03-11
End Date, 2023-06-23
Release Date, 2023-06-27
Reference position, 46.8400850261 North Latitude, -122.2565193738 East Longitude, 533.63030 meters elevation,
Date, North (mm), East (mm), Vertical (mm), North Std. Deviation (mm), East Std. Deviation (mm),              Vertical Std. Deviation (mm), Quality,
2001-03-11,0.00, 0.00, 0.00, 2.67, 1.98, 8.61, repro,
2001-03-12,-0.39, 0.29, 9.77, 2.58, 1.89, 8.35, repro,
2001-03-13,0.26, 0.91, 6.60, 2.49, 1.82, 8.13, repro,
2001-03-14,0.17, 0.13, 1.33, 2.37, 1.77, 8.04, repro,
2001-03-15,0.04, 0.54, -3.04, 2.38, 1.77, 8.02, repro,
2001-03-16,-0.01, -0.19, 3.87, 2.29, 1.70, 7.60, repro,
2001-03-17,0.45, 0.44, 2.06, 2.35, 1.69, 7.66, repro,
2001-03-18,3.24, 1.11, -1.86, 2.31, 1.64, 7.42, repro,
2001-03-19,1.40, 2.78, -1.33, 2.37, 1.69, 7.64, repro,
2001-03-20,0.39, 0.31, -5.37, 2.31, 1.66, 7.57, repro,
2001-03-21,0.26, 0.20, -5.59, 2.30, 1.64, 7.46, repro,
2001-03-22,-0.99, 0.12, 0.15, 2.28, 1.64, 7.44, repro,
2001-03-23,-0.88, 0.38, 1.52, 2.30, 1.64, 7.45, repro,
2001-03-24,-0.28, 0.90, 2.85, 2.28, 1.65, 7.46, repro,
2001-03-25,-1.31, 0.57, 4.28, 2.29, 1.65, 7.46, repro,
2001-03-26,-0.31, 2.61, 11.52, 3.10, 2.39, 10.78, repro,
2001-03-27,-0.65, 0.30, 3.77, 2.45, 1.70, 7.83, repro,
2001-03-28,-1.57, -0.41, 1.22, 2.40, 1.69, 7.76, repro,
2001-03-29,-0.22, 0.43, -2.12, 2.32, 1.65, 7.51, repro,
2001-03-30,1.11, 1.57, -3.61, 2.28, 1.66, 7.51, repro,
2001-03-31,-1.10, 0.68, 5.91, 2.58, 1.88, 8.42, repro,
2001-04-01,-0.16, 0.43, 2.77, 2.31, 1.65, 7.49, repro,
2001-04-02,0.14, -0.16, 6.98, 2.36, 1.67, 7.68, repro,
2001-04-03,-0.11, 0.20, 7.20, 2.36, 1.70, 7.68, repro,
2001-04-04,0.08, 0.13, 9.16, 2.39, 1.71, 7.75, repro,
2001-04-05,0.02, 0.67, 7.91, 2.37, 1.70, 7.77, repro,
2001-04-06,-1.43, -0.16, 4.90, 2.35, 1.69, 7.78, repro,
2001-04-07,0.55, 1.89, 10.92, 2.38, 1.69, 7.78, repro,
2001-04-08,-1.04, 1.32, 6.77, 2.38, 1.70, 7.81, repro,
2001-04-09,0.15, 0.45, 6.52, 2.35, 1.70, 7.76, repro,
2001-04-10,0.28, -0.01, 1.45, 2.36, 1.70, 7.76, repro,
2001-04-11,1.12, 3.33, 10.78, 2.46, 1.75, 8.05, repro,
2001-04-12,0.42, -0.49, 4.64, 2.32, 1.70, 7.89, repro,
2001-04-13,0.96, 1.50, 4.11, 2.28, 1.65, 7.61, repro,
2001-04-14,-1.52, 1.13, -0.34, 2.33, 1.71, 7.86, repro,
2001-04-15,-0.87, 0.54, 8.70, 2.42, 1.76, 8.07, repro,
2001-04-16,-0.79, 0.45, 4.83, 2.45, 1.81, 8.35, repro,
2001-04-17,3.01, -0.71, 7.80, 2.36, 1.68, 7.70, repro,
2001-04-18,-0.23, 0.17, 2.03, 2.56, 1.80, 8.36, repro,
2001-04-19,-0.28, 0.71, 6.67, 2.33, 1.68, 7.61, repro,
2001-04-20,-0.16, 0.72, 11.05, 2.36, 1.67, 7.75, repro,
2001-04-21,-0.62, 0.37, 8.62, 2.34, 1.67, 7.67, repro,
2001-04-22,-0.60, 0.09, 1.94, 2.39, 1.69, 7.81, repro,
2001-04-23,0.31, 0.26, 4.08, 2.40, 1.69, 7.78, repro,
2001-04-24,-1.45, -0.54, 7.99, 2.53, 1.79, 8.22, repro,
2001-04-25,-1.79, 1.02, 6.09, 2.63, 1.88, 8.56, repro,
2001-04-26,-1.91, 0.35, 8.91, 2.30, 1.62, 7.50, repro,
2001-04-27,-1.24, -0.44, 7.52, 2.34, 1.67, 7.72, repro,
2001-04-28,0.10, -1.18, 20.09, 2.27, 1.63, 7.49, repro,
2001-04-29,-1.65, -3.80, 11.68, 2.35, 1.68, 7.76, repro,
2001-04-30,-2.75, -0.92, 11.56, 2.42, 1.75, 8.05, repro,
2001-05-01,-1.58, -2.93, 5.29, 2.33, 1.65, 7.56, repro,
2001-05-02,-1.50, -2.09, 4.23, 2.28, 1.62, 7.44, repro,
2001-05-03,-1.28, -2.58, -0.04, 2.30, 1.65, 7.62, repro,
2001-05-04,-1.17, -2.85, 8.90, 2.26, 1.62, 7.41, repro,
2001-05-05,-0.08, -2.50, 9.66, 2.27, 1.61, 7.39, repro,
2001-05-06,-0.83, -2.30, 4.77, 2.30, 1.62, 7.46, repro,
2001-05-07,-1.05, -2.78, 9.15, 2.30, 1.66, 7.59, repro,
2001-05-08,-1.48, -2.72, 3.52, 2.28, 1.66, 7.59, repro,
2001-05-09,-1.00, -2.52, 9.79, 2.26, 1.63, 7.47, repro,
2001-05-10,-1.38, -2.24, 8.40, 2.25, 1.61, 7.35, repro,
2001-05-11,-0.10, -2.79, 9.50, 2.33, 1.63, 7.48, repro,
2001-05-12,-1.45, -2.06, 11.26, 2.30, 1.65, 7.54, repro,
2001-05-13,-0.17, -2.53, 6.61, 2.28, 1.67, 7.55, repro,
2001-05-14,-0.81, -2.55, 9.63, 2.25, 1.62, 7.37, repro,
2001-05-15,-1.62, -3.75, 14.73, 2.24, 1.61, 7.34, repro,
2001-05-16,-2.19, -3.48, 6.68, 2.28, 1.66, 7.57, repro,
2001-05-17,-0.54, -3.78, 5.48, 2.39, 1.71, 7.80, repro,
2001-05-18,-1.53, -3.03, 7.33, 2.31, 1.64, 7.47, repro,
2001-05-19,-2.64, -3.20, 6.73, 2.23, 1.61, 7.32, repro,
2001-05-20,-1.38, -2.13, 6.17, 2.27, 1.63, 7.49, repro,
2001-05-21,-2.17, -2.53, 12.32, 2.28, 1.62, 7.42, repro,
2001-05-22,-2.29, -2.58, 11.36, 2.29, 1.69, 7.67, repro,
2001-05-23,-1.54, -2.27, 18.03, 2.27, 1.62, 7.38, repro,
2001-05-24,-1.30, -2.38, 14.77, 2.31, 1.69, 7.57, repro,
2001-05-25,-1.40, -2.24, 12.19, 2.27, 1.63, 7.44, repro,
2001-05-26,-1.75, -2.95, 16.00, 2.29, 1.63, 7.47, repro,
2001-05-27,-1.03, -3.58, 16.37, 2.28, 1.63, 7.48, repro,
2001-05-28,-1.36, -3.96, 16.12, 2.30, 1.67, 7.61, repro,
2001-05-29,-0.71, -1.45, 7.97, 2.31, 1.66, 7.56, repro,
2001-05-30,-2.09, -2.44, 7.27, 2.26, 1.64, 7.44, repro,
2001-05-31,-1.53, -1.48, 6.25, 2.29, 1.62, 7.42, repro,
2001-06-01,-2.25, -3.38, 15.72, 2.33, 1.69, 7.63, repro,
2001-06-02,-2.05, -3.01, 13.31, 2.27, 1.64, 7.41, repro,
2001-06-03,-1.06, -3.16, 16.32, 2.24, 1.62, 7.36, repro,
2001-06-04,-1.52, -2.89, 15.42, 2.28, 1.67, 7.54, repro,
2001-06-05,-0.84, -2.05, 10.58, 2.26, 1.62, 7.38, repro,
2001-06-06,-1.59, -2.14, 8.14, 2.33, 1.64, 7.53, repro,
2001-06-07,-1.47, -1.38, 9.26, 2.34, 1.71, 7.85, repro,
2001-06-08,-0.32, -1.85, 12.46, 2.35, 1.66, 7.67, repro,
2001-06-09,-0.86, -1.35, 14.13, 2.27, 1.63, 7.46, repro,
2001-06-10,-1.78, -2.11, 14.05, 2.32, 1.64, 7.56, repro,
2001-06-11,-2.09, -2.06, 12.32, 2.27, 1.62, 7.38, repro,
2001-06-12,-2.60, -2.81, 9.44, 2.36, 1.66, 7.66, repro,
2001-06-13,-1.63, -1.40, 10.31, 2.30, 1.63, 7.44, repro,
2001-06-14,-1.11, -2.11, 9.49, 2.33, 1.65, 7.62, repro,
2001-06-15,-0.85, -1.91, 10.49, 2.30, 1.66, 7.47, repro,
2001-06-16,-1.47, -1.64, 6.58, 2.32, 1.64, 7.55, repro,
2001-06-17,-0.81, -1.77, 6.27, 2.36, 1.65, 7.50, repro,
2001-06-18,-1.91, -2.22, 8.10, 2.27, 1.60, 7.36, repro,
2001-06-19,-2.12, -1.79, 6.40, 2.33, 1.68, 7.64, repro,
2001-06-20,-2.37, -2.01, 10.21, 2.35, 1.71, 7.84, repro,
2001-06-21,-3.98, -1.47, 14.75, 2.28, 1.69, 7.65, repro,
2001-06-22,-2.46, -1.70, 9.40, 2.27, 1.61, 7.35, repro,
2001-06-23,-1.15, -2.39, 7.77, 2.39, 1.70, 7.73, repro,
2001-06-24,-2.80, -2.85, 14.15, 2.28, 1.66, 7.49, repro,
2001-06-25,-1.71, -1.77, 6.80, 2.40, 1.73, 7.73, repro,
2001-06-26,-2.22, -2.16, 13.39, 2.30, 1.64, 7.41, repro,
2001-06-27,-1.27, -1.30, 18.65, 2.29, 1.66, 7.42, repro,
2001-06-28,-2.75, -1.72, 11.48, 2.26, 1.62, 7.33, repro,
2001-06-29,-1.27, -1.57, 0.64, 2.27, 1.64, 7.42, repro,
2001-06-30,-0.98, -2.40, 9.54, 2.26, 1.64, 7.36, repro,
2001-07-01,-3.16, -1.71, 9.74, 2.25, 1.62, 7.31, repro,
2001-07-02,-1.52, -0.69, 9.39, 2.26, 1.62, 7.35, repro,
2001-07-03,-1.59, -2.33, 4.61, 2.27, 1.65, 7.38, repro,
2001-07-04,-2.12, -1.21, 5.74, 2.26, 1.62, 7.30, repro,
2001-07-05,-1.67, -2.23, 7.13, 2.30, 1.66, 7.51, repro,
2001-07-06,-3.97, -2.19, 17.29, 2.29, 1.65, 7.45, repro,
2001-07-07,-2.81, -1.95, 6.40, 2.32, 1.67, 7.49, repro,
2001-07-08,-2.30, -2.32, 10.52, 2.30, 1.64, 7.45, repro,
2001-07-09,-3.54, -2.07, 2.82, 2.29, 1.64, 7.42, repro,
2001-07-10,-3.75, -1.59, 7.33, 2.47, 1.75, 7.93, repro,
2001-07-11,-2.18, -1.86, 11.57, 2.27, 1.67, 7.51, repro,
2001-07-12,-2.16, -2.25, 10.83, 2.32, 1.63, 7.45, repro,
2001-07-13,-1.26, -1.35, 6.15, 2.37, 1.67, 7.59, repro,
2001-07-14,-2.69, -1.66, 8.62, 2.27, 1.64, 7.35, repro,
2001-07-15,-2.97, -1.97, 16.05, 2.25, 1.61, 7.27, repro,
2001-07-16,-2.72, -1.81, 9.43, 2.25, 1.62, 7.33, repro,
2001-07-17,-2.75, -1.67, 13.15, 2.25, 1.61, 7.26, repro,
2001-07-18,-1.84, -1.87, 8.76, 2.28, 1.64, 7.33, repro,
2001-07-19,-2.17, -0.82, 4.22, 2.26, 1.61, 7.32, repro,
2001-07-20,-3.32, -1.62, 6.98, 2.39, 1.68, 7.54, repro,
2001-07-21,-2.04, -1.91, 8.61, 2.26, 1.62, 7.32, repro,
2001-07-22,-1.32, -1.68, 3.75, 2.24, 1.62, 7.25, repro,
2001-07-23,-2.28, -2.12, 10.85, 2.28, 1.65, 7.38, repro,
2001-07-24,-2.16, -1.43, 8.21, 2.26, 1.61, 7.28, repro,
2001-07-25,-2.42, -2.47, 9.90, 2.27, 1.61, 7.32, repro,
2001-07-26,-2.65, -1.86, 8.57, 2.39, 1.68, 7.54, repro,
2001-07-27,-2.09, -2.49, 8.98, 2.42, 1.79, 7.83, repro,
2001-07-28,-2.15, -1.39, 8.50, 2.37, 1.69, 7.67, repro,
2001-07-29,-1.10, -2.31, 7.72, 2.36, 1.70, 7.61, repro,
2001-07-30,-2.66, -2.28, 8.45, 2.48, 1.73, 7.88, repro,
2001-07-31,-2.69, -1.98, 6.45, 2.38, 1.71, 7.73, repro,
2001-08-01,-2.70, -0.91, 4.43, 2.34, 1.66, 7.62, repro,
2001-08-02,-2.43, -3.20, 11.72, 2.32, 1.66, 7.54, repro,
2001-08-03,0.26, -1.60, 12.26, 2.33, 1.67, 7.59, repro,
2001-08-04,-3.05, -0.38, 19.15, 2.36, 1.70, 7.63, repro,
2001-08-05,-2.62, -2.99, 13.23, 2.38, 1.70, 7.71, repro,
2001-08-06,-0.79, -2.46, 12.43, 2.36, 1.70, 7.68, repro,
2001-08-07,-1.78, -1.86, 11.26, 2.50, 1.87, 8.38, repro,
2001-08-08,-1.91, -1.96, 3.82, 2.40, 1.77, 7.91, repro,
2001-08-09,-1.86, -1.68, 9.38, 2.54, 1.76, 8.24, repro,
2001-08-10,-3.23, -2.65, 13.30, 2.54, 1.84, 8.32, repro,
2001-08-11,-1.47, -2.21, 7.04, 2.43, 1.72, 7.75, repro,
2001-08-12,-2.55, -2.65, 12.98, 2.38, 1.65, 7.51, repro,
2001-08-13,-2.17, -1.91, 9.28, 2.40, 1.69, 7.65, repro,
2001-08-14,-1.99, -1.78, 18.37, 2.33, 1.69, 7.49, repro,
2001-08-15,-1.85, -1.84, 8.60, 2.73, 2.01, 8.74, repro,
2001-08-16,-2.77, -1.82, 8.97, 2.48, 1.74, 7.71, repro,
2001-08-17,-1.69, -3.60, 5.65, 2.41, 1.68, 7.57, repro,
2001-08-18,-1.56, -2.65, 6.81, 2.53, 1.78, 7.98, repro,
2001-08-19,-1.82, -2.59, 13.73, 2.51, 1.82, 7.97, repro,
2001-08-20,-2.65, -2.78, 11.82, 2.55, 1.81, 7.95, repro,
2001-08-21,-3.24, -3.39, 12.61, 2.60, 1.79, 8.04, repro,
2001-08-22,5.52, -1.75, 20.66, 2.39, 1.67, 7.55, repro,
2001-08-23,-0.94, -3.38, 10.27, 2.49, 1.73, 7.72, repro,
2001-08-24,-1.64, -2.56, 14.38, 2.44, 1.73, 7.64, repro,
2001-08-25,-1.63, -2.93, 12.52, 2.39, 1.69, 7.53, repro,
2001-08-26,-3.95, -2.12, 9.91, 3.03, 2.12, 9.65, repro,
2001-08-27,-1.72, -2.46, 12.23, 2.57, 1.82, 8.16, repro,
2001-08-28,-1.46, -2.80, 8.78, 2.98, 2.08, 9.28, repro,
2001-08-29,-2.60, -2.53, 8.38, 2.75, 1.90, 8.51, repro,
2001-08-30,-2.16, -3.73, 7.39, 2.67, 1.84, 8.42, repro,
2001-08-31,-2.68, -3.26, 19.99, 2.66, 1.88, 8.31, repro,
2001-09-01,-3.12, -3.03, 9.33, 2.38, 1.68, 7.54, repro,
2001-09-02,-2.73, -2.27, 20.76, 2.42, 1.73, 7.71, repro,
2001-09-03,-3.79, -3.13, 11.55, 2.46, 1.72, 7.81, repro,
2001-09-04,-1.17, -2.60, 9.55, 2.51, 1.79, 8.11, repro,
2001-09-05,-3.08, -2.05, 18.54, 2.70, 1.99, 8.58, repro,
2001-09-06,-2.83, -2.01, 15.52, 2.56, 1.80, 7.92, repro,
2001-09-07,-1.87, -2.16, 8.10, 2.30, 1.64, 7.40, repro,
2001-09-08,-3.48, -1.33, 14.81, 2.30, 1.66, 7.47, repro,
2001-09-09,-1.22, -2.28, 16.68, 2.36, 1.74, 7.68, repro,
2001-09-10,-1.84, -2.05, 11.77, 2.32, 1.66, 7.42, repro,
2001-09-11,-1.98, -1.58, 14.17, 2.34, 1.75, 7.71, repro,
2001-09-12,-1.88, -2.25, 12.60, 2.38, 1.72, 7.71, repro,
2001-09-13,-1.92, -1.96, 13.47, 2.36, 1.67, 7.53, repro,
2001-09-14,-1.34, -1.86, 17.59, 2.30, 1.64, 7.41, repro,
2001-09-15,-1.90, -1.71, 17.65, 2.30, 1.65, 7.41, repro,
2001-09-16,-3.51, -1.60, 23.09, 2.30, 1.64, 7.42, repro,
2001-09-17,-2.89, -1.83, 24.85, 2.30, 1.64, 7.40, repro,
2001-09-18,-2.04, -1.06, 19.62, 2.27, 1.62, 7.30, repro,
2001-09-19,-2.04, -1.92, 19.61, 2.28, 1.64, 7.39, repro,
2001-09-20,-2.23, -2.08, 17.72, 2.38, 1.74, 7.82, repro,
2001-09-21,-2.67, -1.54, 22.14, 2.30, 1.66, 7.51, repro,
2001-09-22,-1.93, -2.03, 20.52, 2.28, 1.61, 7.32, repro,
2001-09-23,-1.43, -1.66, 12.27, 2.27, 1.63, 7.33, repro,
2001-09-24,-2.57, -2.10, 14.76, 2.26, 1.59, 7.24, repro,
2001-09-25,-1.89, -1.25, 20.71, 2.31, 1.65, 7.50, repro,
2001-09-26,-0.68, -1.90, 23.29, 2.38, 1.70, 7.78, repro,
2001-09-27,-2.66, -1.94, 24.21, 2.32, 1.68, 7.62, repro,
2001-09-28,-2.25, -1.57, 20.23, 2.29, 1.64, 7.44, repro,
2001-09-29,-1.87, -2.15, 14.31, 2.33, 1.68, 7.64, repro,
2001-09-30,-0.54, -1.53, 13.99, 2.27, 1.60, 7.29, repro,
2001-10-01,-2.55, -2.38, 21.69, 2.40, 1.69, 7.62, repro,
2001-10-02,-3.04, -1.05, 22.85, 2.34, 1.63, 7.55, repro,
2001-10-03,-2.32, -1.34, 18.34, 2.60, 1.75, 8.22, repro,
2001-10-04,-2.45, -1.28, 12.89, 2.71, 1.73, 8.09, repro,
2001-10-05,-1.76, -0.92, 20.94, 2.36, 1.63, 7.47, repro,
2001-10-06,-2.70, -1.94, 22.49, 2.35, 1.66, 7.50, repro,
2001-10-07,-2.56, -1.89, 21.34, 2.48, 1.72, 7.80, repro,
2001-10-08,-2.43, -2.47, 24.69, 2.46, 1.67, 7.65, repro,
2001-10-09,-2.09, -1.74, 14.41, 2.30, 1.62, 7.35, repro,
2001-10-10,-2.98, -0.73, 10.68, 2.35, 1.64, 7.41, repro,
2001-10-11,-3.39, -2.26, 18.78, 2.27, 1.60, 7.23, repro,
2001-10-12,-1.40, -1.67, 18.83, 2.49, 1.70, 7.76, repro,
2001-10-13,-0.98, -1.53, 16.56, 2.41, 1.70, 7.77, repro,
2001-10-14,-2.81, -2.07, 17.20, 2.39, 1.70, 7.70, repro,
2001-10-15,-2.13, -1.12, 19.81, 2.48, 1.73, 7.74, repro,
2001-10-16,-0.04, -0.61, 14.66, 2.44, 1.67, 7.68, repro,
2001-10-17,-1.88, -2.00, 19.47, 2.56, 1.76, 7.88, repro,
2001-10-18,-3.72, -1.55, 21.21, 2.55, 1.75, 7.88, repro,
2001-10-19,-2.15, -1.71, 11.93, 2.95, 1.99, 9.11, repro,
2001-10-20,-2.50, -2.15, 15.44, 2.50, 1.76, 7.87, repro,
2001-10-21,-2.13, -2.39, 23.85, 2.53, 1.80, 8.22, repro,
2001-10-22,-2.58, -1.38, 20.72, 2.64, 1.86, 8.32, repro,
2001-10-23,-2.60, -1.35, 17.94, 2.47, 1.69, 7.67, repro,
2001-10-24,-2.45, -1.97, 20.19, 2.71, 1.81, 8.27, repro,
2001-10-25,-1.21, -1.23, 9.81, 2.69, 1.90, 8.45, repro,
2001-10-26,-1.19, -2.25, 18.09, 2.58, 1.76, 7.95, repro,
2001-10-27,-1.37, -2.77, 19.65, 2.56, 1.75, 7.95, repro,
2001-10-28,-4.44, -1.91, 18.97, 2.92, 2.12, 9.52, repro,
2001-10-29,-2.36, -1.01, 5.41, 2.50, 1.73, 7.87, repro,
2001-10-30,-0.92, -1.11, 16.56, 2.41, 1.72, 7.81, repro,
2001-10-31,-1.40, -1.78, 32.99, 2.45, 1.72, 7.74, repro,
2001-11-01,-0.60, -2.92, 20.47, 2.80, 2.02, 9.08, repro,
2001-11-02,-0.25, -2.87, 17.18, 2.40, 1.71, 7.65, repro,
2001-11-03,-1.36, -2.33, 12.39, 2.72, 1.94, 8.87, repro,
2001-11-04,-1.06, -1.80, 7.22, 2.55, 1.76, 8.04, repro,
2001-11-05,-1.73, -2.76, 16.61, 2.81, 2.11, 9.41, repro,
2001-11-06,-1.32, -1.81, 19.52, 2.86, 1.95, 8.97, repro,
2001-11-07,-0.14, -1.09, 3.45, 2.56, 1.78, 8.18, repro,
2001-11-08,-1.94, -1.26, 12.58, 2.59, 1.81, 8.44, repro,
2001-11-09,-2.51, -2.02, 10.32, 3.07, 2.12, 9.74, repro,
2001-11-10,-1.68, -1.06, 11.80, 2.84, 2.11, 9.42, repro,
2001-11-11,-2.94, -1.44, 14.79, 2.39, 1.69, 7.57, repro,
2001-11-12,-0.35, -0.90, 21.99, 2.50, 1.77, 8.04, repro,
2001-11-13,-0.21, -1.24, 23.45, 2.50, 1.76, 7.83, repro,
2001-11-14,3.98, 0.72, 35.55, 2.44, 1.71, 7.74, repro,
2001-11-15,-0.10, -1.24, 21.46, 2.44, 1.74, 7.84, repro,
2001-11-16,-0.66, -2.02, 13.39, 2.57, 1.85, 8.28, repro,
2001-11-17,-1.29, -1.03, 10.96, 2.38, 1.69, 7.61, repro,
2001-11-18,-1.31, -0.16, 9.25, 2.48, 1.84, 8.23, repro,
2001-11-19,2.66, -0.06, 11.05, 2.43, 1.71, 7.88, repro,
2001-11-20,2.82, -0.22, 10.25, 2.75, 2.05, 9.50, repro,
2001-11-21,0.73, -2.89, 13.53, 2.57, 1.89, 8.55, repro,
2001-11-22,-1.12, -0.81, 23.15, 2.62, 1.95, 8.86, repro,
2001-11-23,-0.45, -1.58, 13.59, 2.71, 1.91, 8.67, repro,
2001-11-24,-1.55, -0.81, 16.44, 3.28, 2.34, 11.02, repro,
2001-11-25,0.39, -0.31, 13.14, 2.97, 2.16, 10.10, repro,
2001-11-26,-0.94, -0.82, 1.14, 2.60, 1.84, 8.33, repro,
2001-11-27,-0.83, -0.31, 2.16, 2.60, 1.91, 8.79, repro,
2001-11-28,3.81, 1.01, 10.59, 2.54, 1.85, 8.28, repro,
2001-11-29,-0.91, 0.23, 22.30, 2.39, 1.69, 7.60, repro,
2001-11-30,-1.04, -0.32, 11.20, 2.42, 1.78, 7.93, repro,
2001-12-01,0.91, 0.10, 28.39, 2.46, 1.80, 8.15, repro,
2001-12-02,0.83, -1.67, 14.48, 2.70, 2.00, 8.87, repro,
2001-12-03,-2.18, -0.96, 5.75, 2.43, 1.79, 8.05, repro,
2001-12-04,0.65, 1.51, 7.29, 2.45, 1.80, 8.10, repro,
2001-12-05,-1.03, 0.26, 10.83, 2.36, 1.72, 7.70, repro,
2001-12-06,-0.76, -0.31, 5.02, 2.42, 1.78, 7.94, repro,
2001-12-07,-0.93, -0.72, -5.90, 2.37, 1.73, 7.67, repro,
2001-12-08,-1.35, -0.28, 11.61, 2.32, 1.69, 7.52, repro,
2001-12-09,-2.17, -1.34, 9.11, 2.32, 1.68, 7.49, repro,
2001-12-10,-1.40, 0.20, 15.41, 2.49, 1.82, 8.17, repro,
2001-12-11,-1.60, -0.51, 10.44, 2.40, 1.76, 7.77, repro,
2001-12-12,-0.64, -0.83, 4.39, 2.56, 1.81, 8.12, repro,
2001-12-13,-1.78, -1.05, 10.94, 2.48, 1.75, 7.83, repro,
2001-12-14,-0.46, -2.12, 15.71, 2.32, 1.66, 7.38, repro,
2001-12-15,-2.07, -1.32, 7.53, 2.44, 1.78, 8.00, repro,
2001-12-16,2.74, 1.04, 16.73, 2.41, 1.78, 7.89, repro,
2001-12-17,-2.75, -1.39, 8.61, 2.43, 1.77, 7.97, repro,
2001-12-18,-0.69, -0.15, 8.07, 2.40, 1.75, 7.92, repro,
2001-12-19,-1.25, -0.15, 1.61, 2.39, 1.71, 7.73, repro,
2001-12-20,-1.50, -0.11, 3.66, 2.37, 1.69, 7.72, repro,
2001-12-21,-1.30, -0.11, 3.15, 2.36, 1.73, 7.67, repro,
2001-12-22,-2.49, -0.74, 10.11, 2.47, 1.79, 8.18, repro,
2001-12-23,-2.15, -0.18, -3.56, 2.43, 1.73, 7.88, repro,
2001-12-24,1.17, -0.75, -6.73, 2.72, 1.98, 8.86, repro,
2001-12-25,-1.07, -1.46, -4.46, 2.40, 1.71, 7.80, repro,
2001-12-26,-0.25, 0.50, 0.04, 2.39, 1.67, 7.69, repro,
2001-12-27,-0.01, -0.41, -1.51, 2.64, 1.91, 8.58, repro,
2001-12-28,-1.84, -0.37, -0.94, 2.36, 1.68, 7.64, repro,
2001-12-29,-2.41, -0.15, 6.28, 2.38, 1.67, 7.66, repro,
2001-12-30,-1.72, -0.80, 2.63, 2.45, 1.76, 8.10, repro,
2001-12-31,-1.58, 0.56, 0.49, 2.58, 1.88, 8.38, repro,
2002-01-01,-1.20, 0.20, 7.96, 2.41, 1.75, 7.82, repro,
2002-01-02,2.60, 1.15, 15.62, 2.48, 1.81, 8.11, repro,
2002-01-03,0.88, -0.63, 2.05, 2.58, 1.83, 8.29, repro,
2002-01-04,-1.52, -0.23, 7.73, 2.55, 1.82, 8.12, repro,
2002-01-05,-1.42, -0.85, 11.92, 2.48, 1.79, 8.08, repro,
2002-01-06,1.98, -0.68, 13.83, 2.33, 1.69, 7.62, repro,
2002-01-07,-0.24, 1.60, 24.31, 2.44, 1.81, 8.22, repro,
2002-01-08,-0.69, 0.86, 15.76, 2.69, 1.91, 8.81, repro,
2002-01-09,-2.09, -0.35, 8.08, 2.42, 1.74, 7.97, repro,
2002-01-10,-0.14, -0.30, 0.85, 2.45, 1.81, 8.25, repro,
2002-01-11,-1.61, -0.09, 1.37, 2.48, 1.76, 8.01, repro,
2002-01-12,1.90, 0.36, 0.15, 2.37, 1.75, 7.86, repro,
2002-01-13,-1.76, -0.86, 7.15, 2.80, 1.96, 9.21, repro,
2002-01-14,-0.86, -0.93, 2.44, 2.61, 1.84, 8.50, repro,
2002-01-15,-0.32, -0.52, 1.08, 2.37, 1.77, 7.87, repro,
2002-01-16,-1.49, -0.23, 0.79, 2.58, 2.00, 9.19, repro,
2002-01-17,-0.74, -0.19, 0.40, 2.49, 1.86, 8.30, repro,
2002-01-18,-1.24, 0.17, 1.05, 2.26, 1.68, 7.52, repro,
2002-01-19,-1.62, -0.08, 4.99, 2.25, 1.67, 7.42, repro,
2002-01-20,-1.12, -0.24, 11.44, 2.25, 1.64, 7.37, repro,
2002-01-21,-2.89, -1.06, 7.90, 2.25, 1.68, 7.49, repro,
2002-01-22,-0.77, -0.75, 5.63, 2.39, 1.85, 8.11, repro,
2002-01-23,-1.21, -0.52, 3.68, 2.56, 1.88, 8.43, repro,
2002-01-24,-2.13, -1.17, -1.41, 2.27, 1.69, 7.52, repro,
2002-01-25,0.51, 0.28, 4.99, 2.53, 1.86, 8.48, repro,
2002-01-26,0.32, 0.29, 6.31, 2.27, 1.66, 7.49, repro,
2002-01-27,0.36, -0.72, -2.26, 2.27, 1.67, 7.50, repro,
2002-01-28,-1.70, -1.36, -1.83, 2.28, 1.70, 7.52, repro,
2002-01-29,-1.62, 0.16, -3.99, 2.26, 1.66, 7.40, repro,
2002-01-30,-1.43, -0.76, -4.58, 2.41, 1.74, 7.87, repro,
2002-01-31,-3.15, -1.15, -4.55, 2.26, 1.66, 7.47, repro,
2002-02-01,-1.74, 0.08, -2.75, 2.39, 1.77, 7.91, repro,
2002-02-02,-1.55, -1.31, -0.62, 2.67, 1.93, 8.70, repro,
2002-02-03,-0.07, 0.67, 0.82, 2.26, 1.65, 7.40, repro,
2002-02-04,-2.52, -0.49, -2.04, 2.60, 1.87, 8.29, repro,
2002-02-05,-2.20, -0.85, 5.51, 2.46, 1.87, 8.18, repro,
2002-02-06,-0.74, -0.83, 12.81, 2.38, 1.75, 7.73, repro,
2002-02-07,0.38, 0.10, 11.07, 2.64, 1.92, 8.66, repro,
2002-02-08,-1.57, -0.54, 0.16, 2.46, 1.88, 8.21, repro,
2002-02-09,-2.00, 0.58, -5.71, 2.36, 1.75, 7.79, repro,
2002-02-10,0.33, 0.29, -3.34, 2.52, 1.88, 8.27, repro,
2002-02-11,-0.45, 0.53, -7.88, 2.50, 1.85, 8.13, repro,
2002-02-12,-1.92, -0.03, -0.35, 2.46, 1.80, 7.96, repro,
2002-02-13,-1.27, -0.62, 1.62, 2.40, 1.82, 8.06, repro,
2002-02-14,-2.26, -0.48, -1.44, 2.61, 2.00, 8.61, repro,
2002-02-15,-2.11, -0.44, 4.29, 2.59, 1.94, 8.47, repro,
2002-02-16,-2.26, -0.30, 3.61, 2.54, 1.84, 8.31, repro,
2002-02-17,-0.78, -0.24, 7.14, 2.71, 2.07, 9.16, repro,
2002-02-18,-1.39, -0.14, 3.53, 2.71, 2.06, 8.95, repro,
2002-02-19,-1.27, 0.54, 7.01, 2.59, 1.91, 8.44, repro,
2002-02-20,-2.14, -0.15, 1.03, 2.60, 1.97, 8.67, repro,
2002-02-21,3.10, 0.64, 5.25, 2.76, 2.07, 9.32, repro,
2002-02-22,3.30, 3.63, 9.95, 2.52, 1.84, 8.26, repro,
2002-02-23,0.33, 0.97, 2.05, 2.45, 1.92, 8.28, repro,
2002-02-24,-0.82, -0.52, 4.96, 2.57, 1.97, 8.75, repro,
2002-02-25,-0.93, -0.17, -1.55, 2.36, 1.83, 8.07, repro,
2002-02-26,-0.70, 1.00, -6.45, 2.50, 1.95, 8.54, repro,
2002-02-27,0.88, -0.48, -5.03, 2.76, 2.07, 9.39, repro,
2002-02-28,-1.06, 0.93, 0.11, 2.59, 1.95, 8.80, repro,
2002-03-01,-0.27, 0.52, 2.32, 2.45, 1.88, 8.39, repro,
2002-03-02,-0.15, 0.36, 2.48, 2.63, 2.02, 8.87, repro,
2002-03-03,-0.87, -0.13, -3.79, 2.34, 1.87, 8.32, repro,
2002-03-04,0.57, 0.59, -0.25, 2.28, 1.70, 7.71, repro,
2002-03-05,1.06, 1.93, -0.59, 2.32, 1.68, 7.70, repro,
2002-03-06,-1.58, -0.45, -2.29, 2.31, 1.76, 7.91, repro,
2002-03-07,-0.14, 0.24, 1.36, 2.26, 1.69, 7.60, repro,
2002-03-08,0.45, 0.41, 0.72, 2.29, 1.69, 7.72, repro,
2002-03-09,-0.24, 0.74, -1.71, 2.28, 1.68, 7.65, repro,
2002-03-10,2.11, -1.12, 3.58, 2.26, 1.64, 7.52, repro,
2002-03-11,1.05, 1.75, 8.90, 2.30, 1.72, 7.86, repro,
2002-03-12,0.33, 0.43, 5.15, 2.28, 1.68, 7.69, repro,
2002-03-13,-0.74, 0.22, -3.61, 2.26, 1.68, 7.66, repro,
2002-03-14,-1.60, 0.91, 2.07, 2.23, 1.63, 7.46, repro,
2002-03-15,-1.88, 0.06, 2.19, 2.25, 1.67, 7.57, repro,
2002-03-16,-0.40, 0.21, -0.09, 2.26, 1.63, 7.55, repro,
2002-03-17,-1.84, 0.22, -1.77, 2.29, 1.68, 7.72, repro,
2002-03-18,-1.13, 0.66, -1.64, 2.35, 1.79, 8.07, repro,
2002-03-19,0.02, 2.48, 2.15, 2.30, 1.69, 7.73, repro,
2002-03-20,-0.97, 0.88, -4.27, 2.25, 1.66, 7.60, repro,
2002-03-21,-2.08, 0.05, -11.39, 2.28, 1.67, 7.64, repro,
2002-03-22,-0.90, 1.01, -3.70, 2.28, 1.67, 7.72, repro,
2002-03-23,-0.09, 0.25, 0.77, 2.39, 1.74, 8.02, repro,
2002-03-24,-0.08, 1.31, -6.23, 2.36, 1.71, 8.00, repro,
2002-03-25,-1.26, 0.14, -2.00, 2.32, 1.66, 7.77, repro,
2002-03-26,-0.78, -0.50, -10.80, 2.31, 1.64, 7.72, repro,
2002-03-27,-1.08, 0.29, -2.81, 2.37, 1.75, 8.16, repro,
2002-03-28,-2.02, 0.15, 1.02, 2.39, 1.75, 8.10, repro,
2002-03-29,-1.57, 0.95, -5.70, 2.35, 1.73, 8.06, repro,
2002-03-30,-1.48, 0.08, -6.08, 2.37, 1.69, 7.92, repro,
2002-03-31,-0.48, 0.95, -0.66, 2.34, 1.67, 7.87, repro,
2002-04-01,-2.05, 0.22, -5.55, 2.30, 1.67, 7.78, repro,
2002-04-02,-1.27, 0.91, -7.07, 2.28, 1.64, 7.59, repro,
2002-04-03,-0.23, 1.29, -7.08, 2.38, 1.73, 7.90, repro,
2002-04-04,-0.87, 1.08, -7.89, 2.33, 1.66, 7.73, repro,
2002-04-05,-1.55, 1.34, -8.32, 2.51, 1.76, 8.20, repro,
2002-04-06,-0.45, 0.03, -1.17, 2.37, 1.69, 7.85, repro,
2002-04-07,-0.07, 0.68, 0.61, 2.28, 1.62, 7.50, repro,
2002-04-08,-1.28, 0.27, -2.15, 2.40, 1.82, 8.21, repro,
2002-04-09,-2.35, 0.33, 2.49, 2.37, 1.75, 8.04, repro,
2002-04-10,-2.27, 0.36, -3.94, 2.38, 1.75, 8.13, repro,
2002-04-11,-1.96, 0.88, 2.49, 2.33, 1.67, 7.84, repro,
2002-04-12,-2.16, -0.36, 1.22, 2.46, 1.76, 8.20, repro,
2002-04-13,-2.34, -0.45, -0.42, 2.31, 1.66, 7.76, repro,
2002-04-14,-0.41, 0.14, 5.94, 2.44, 1.71, 8.05, repro,
2002-04-15,-0.71, -0.57, 8.39, 2.38, 1.71, 8.05, repro,
2002-04-16,-0.77, -0.20, 9.55, 2.33, 1.67, 7.76, repro,
2002-04-17,0.24, -0.04, 2.26, 2.53, 1.85, 8.59, repro,
2002-04-18,-1.56, 0.04, 2.70, 2.44, 1.75, 8.25, repro,
2002-04-19,-0.48, 0.44, -5.82, 2.43, 1.76, 8.14, repro,
2002-04-20,-1.51, 0.49, 1.03, 2.36, 1.72, 7.99, repro,
2002-04-21,-0.82, 0.23, 0.85, 2.30, 1.67, 7.71, repro,
2002-04-22,-1.71, -0.01, 4.21, 2.36, 1.74, 8.01, repro,
2002-04-23,-0.26, 0.42, 1.96, 2.32, 1.66, 7.79, repro,
2002-04-24,-0.71, 0.41, -1.44, 2.26, 1.63, 7.54, repro,
2002-04-25,-1.10, -0.01, 0.27, 2.29, 1.65, 7.66, repro,
2002-04-26,-1.97, 0.62, 3.77, 2.40, 1.72, 7.99, repro,
2002-04-27,-0.70, -0.50, 5.61, 2.57, 1.81, 8.49, repro,
2002-04-28,-1.16, 1.10, -0.04, 2.27, 1.60, 7.46, repro,
2002-04-29,-1.01, 0.63, -3.16, 2.32, 1.68, 7.76, repro,
2002-04-30,-2.76, -0.06, 4.64, 2.35, 1.63, 7.66, repro,
2002-05-01,-1.64, -0.09, 2.48, 2.36, 1.63, 7.65, repro,
2002-05-02,-1.03, -0.14, 3.48, 2.25, 1.60, 7.43, repro,
2002-05-03,-1.49, 0.18, 8.33, 2.31, 1.65, 7.68, repro,